This is the latest recevied weather packets stored in our database for station/object KQ4OSL. If no packets are shown the sender has not sent any weather packets the latest 10 day(s).
| Time | Temp. | Humidity | Pressure | Rain* | Wind** | Luminosity | Snow |
|---|---|---|---|---|---|---|---|
| 1777462965 | 16.67° C | 99% | 1017 hPa | 0 mm | - | 13 W/m² | - |
| 1777462661 | 16.67° C | 99% | 1017 hPa | 0 mm | - | 16 W/m² | - |
| 1777462356 | 16.67° C | 99% | 1017.1 hPa | 0 mm | - | 18 W/m² | - |
| 1777462052 | 16.67° C | 99% | 1017.1 hPa | 0 mm | - | 12 W/m² | - |
| 1777461750 | 16.67° C | 99% | 1017.3 hPa | 0 mm | - | 8 W/m² | - |
| 1777461445 | 16.67° C | 99% | 1017.3 hPa | 0 mm | - | 5 W/m² | - |
| 1777461142 | 16.67° C | 99% | 1017.4 hPa | 0 mm | - | 2 W/m² | - |
| 1777460837 | 16.67° C | 99% | 1017.4 hPa | 0 mm | - | 2 W/m² | - |
| 1777460533 | 16.67° C | 99% | 1017.8 hPa | 0 mm | - | 1 W/m² | - |
| 1777460229 | 16.67° C | 99% | 1018.1 hPa | 0 mm | - | 0 W/m² | - |
| 1777459926 | 16.67° C | 99% | 1018.1 hPa | 0 mm | - | 0 W/m² | - |
| 1777459623 | 16.67° C | 99% | 1018.1 hPa | 0 mm | - | 0 W/m² | - |
| 1777459319 | 16.67° C | 99% | 1017.8 hPa | 0 mm | - | 0 W/m² | - |
| 1777459018 | 16.67° C | 99% | 1017.8 hPa | 0 mm | - | 0 W/m² | - |
| 1777458715 | 16.67° C | 99% | 1017.8 hPa | 0 mm | - | 0 W/m² | - |
| 1777458411 | 16.67° C | 99% | 1017.6 hPa | 0 mm | - | 0 W/m² | - |
| 1777458107 | 16.67° C | 99% | 1017.9 hPa | 0 mm | - | 0 W/m² | - |
| 1777457803 | 16.67° C | 99% | 1017.9 hPa | 0 mm | - | 0 W/m² | - |
| 1777457503 | 16.67° C | 99% | 1017.6 hPa | 0 mm | - | 0 W/m² | - |
| 1777457199 | 16.67° C | 99% | 1017.3 hPa | 0 mm | - | 0 W/m² | - |
| 1777456895 | 16.67° C | 99% | 1017.5 hPa | 0 mm | - | 0 W/m² | - |
| 1777456590 | 16.67° C | 99% | 1017.3 hPa | 0 mm | - | 0 W/m² | - |
| 1777456286 | 16.67° C | 99% | 1017.1 hPa | 1.78 mm | - | 0 W/m² | - |
| 1777455981 | 16.67° C | 99% | 1017.1 hPa | 1.78 mm | - | 0 W/m² | - |
| 1777455678 | 16.67° C | 99% | 1016.8 hPa | 1.27 mm | - | 0 W/m² | - |
* Rain latest hour (hover to see other rain measurements)
** Current wind speed in m/s (hover to see current wind gust speed)